HULIANGWANG DIGUI-10 (62332 NORAD) Tracking and Keplerian Element Data

This shows tracking and keplerian element data for the satellite.

Feedback or suggestion? Click here.




ElementValue
Catalog62332
NameHULIANGWANG DIGUI-10
Epoch Orbit660
Epoch Day34.81237851
Epoch Year2025
RAAN151.8253
Inclination86.508
Eccentricity0.0011084
Argument of Perigee151.1726
Mean Anonmoly209.003
Mean Motion13.37564345
Decay Rate1.07E-06
L11 62332U 24240K 25034.81237851 .00000107 00000+0 17422-3 0 9993
L22 62332 86.5080 151.8253 0011084 151.1726 209.0030 13.37564345 6604



Live tracking and technical data element details for HULIANGWANG DIGUI-10 (NORAD 62332). HULIANGWANG DIGUI-10 can be tracked NOW for your location showing map with azimuth and elevation plus other details from your city location.







IsCatalogInMostPopularTable: catalog: 62332, numindb: 10
Update: records affected: 1



GetName: 62332 HULIANGWANG DIGUI-10

Hit Count: updated at: Sun, 18 May 2025 22:56:35 GMT